Погода в Гилимануке

Индонезия     8°10′19″S   114°26′20″E
темп.,
°C
ветер,
м/с
пор.,
м/с
влажн.,
%
обл.,
%
осадки,
мм/ч
давл.,
гПа
погр.,
м
2 марта, вт
вт223:00+24ссв258714 0.0 1011178
02:00+24ссв248825 0.0 1010179
05:00+24ссв238923 0.0 1008132
08:00+26ссв248211 0.0 1010265
11:00+30ссв34620 0.0 1010844
14:00+30ссв466418 0.6 1008667
17:00+27св358554 3.6 1008186
20:00+25св128733 4.5 101051
3 марта, ср
ср323:00+24св11890 0.9 101250
02:00+24с11910 0.9 101045
05:00+23ссв01897 0.0 100945
08:00+25ссв01844 0.0 101192
11:00+30з11590 0.0 1011753
14:00+31зсз01581 0.3 1008862
17:00+29с117063 0.8 1008363
20:00+25ююз018781 5.5 101062
4 марта, чт
чт423:00+25с2288100 2.7 101291
02:00+24св229089 2.7 101197
05:00+23св1290100 0.0 101096
08:00+25ссв018594 0.0 1012116
11:00+30юз116187 0.0 1011731
14:00+30ююз236291 0.4 1009637
17:00+27ю2483100 4.7 1008415
20:00+25ю2488100 6.8 1011143
5 марта, пт
пт523:00+24ююз2388100 0.4 1012137
02:00+24ююз2488100 0.5 1010183
05:00+23ю2390100 2.3 1010143
08:00+24ююв2390100 4.8 1012159
11:00+28ююв3569100 0.1 1012758
14:00+29ю4565100 0.3 1009839
17:00+28ю456967 0.2 1008979
20:00+25ююв238482 0.3 1010264
6 марта, сб
сб623:00+24ююв0085100 0.0 101061
02:00+24св1186100 0.0 100954
05:00+24ссв1285100 0.0 1009104
08:00+26ссв018299 0.1 1011190
11:00+28с117679 0.8 1011439
14:00+30ссв236790 2.8 10081004
17:00+28ссв3576100 2.1 1008406
20:00+25св3585100 2.8 1010201